Location: Unspecified
(41.5516°N, 88.1098°W)
Time: 08:48:40
(UTC-05:00)

Cosmos 2058 - Visible Passes

Search period start: 23 July 2014 00:00
Search period end: 02 August 2014 00:00
Orbit: 572 x 593 km, 82.5° (Epoch: 22 July)

Date Brightness Start Highest point End Pass type
(mag) Time Alt. Az. Time Alt. Az. Time Alt. Az.
23 Jul 5.2 03:51:07 10° NNE 03:54:40 26° ENE 03:58:12 10° SE visible
24 Jul 4.5 03:56:44 10° N 04:00:39 35° ENE 04:04:32 10° SE visible
25 Jul 3.8 04:02:28 10° N 04:06:36 51° E 04:10:41 10° SSE visible
26 Jul 3.1 04:08:17 10° N 04:12:31 74° E 04:16:42 10° SSE visible
27 Jul 2.9 04:14:10 10° N 04:18:25 77° W 04:22:35 10° S visible
28 Jul 5.8 02:44:51 10° NE 02:46:49 13° ENE 02:48:45 10° E visible
28 Jul 3.1 04:20:09 10° NNW 04:24:16 52° W 04:27:57 12° SSW visible
29 Jul 5.5 02:49:57 10° NNE 02:52:51 18° ENE 02:55:44 10° ESE visible
29 Jul 3.6 04:26:13 10° NNW 04:30:06 36° W 04:32:59 16° SSW visible
30 Jul 5.0 02:55:23 10° NNE 02:58:52 24° ENE 03:01:46 13° SE visible
30 Jul 4.1 04:32:24 10° NNW 04:35:54 25° W 04:38:07 17° SW visible
31 Jul 4.4 03:00:59 10° N 03:04:51 34° ENE 03:06:57 21° SE visible
31 Jul 4.5 04:38:46 10° NW 04:41:40 18° W 04:43:18 15° WSW visible
01 Aug 3.7 03:06:42 10° N 03:10:48 48° E 03:12:11 34° SE visible
01 Aug 4.9 04:45:29 10° WNW 04:47:24 13° W 04:48:32 12° WSW visible
